Погода в Родниковом

Россия / Республика Дагестан     42°09′00″N   47°56′57″E
темп.,
°C
ветер,
м/с
пор.,
м/с
влажн.,
%
обл.,
%
осадки,
мм/ч
давл.,
гПа
погр.,
м
15 мая, сб
сб1500:00+18ююз22529 0.0 101313
03:00+18ююз22500 0.0 101314
06:00+20ююз11510 0.0 101324
09:00+26в35350 0.0 1013580
12:00+27в57300 0.0 1014780
15:00+27в47290 0.0 1013624
18:00+23в23440 0.0 101370
21:00+18зюз11525 0.0 101411
16 мая, вс
вс1600:00+17ююв01605 0.0 101311
03:00+17ююз11580 0.0 101212
06:00+20ююв12540 0.0 101251
09:00+26вюв46300 0.0 1011692
12:00+30юв79220 0.0 10101240
15:00+28вюв711270 0.0 1008704
18:00+22вюв36420 0.0 1008191
21:00+17юв12550 0.0 100948
17 мая, пн
пн1700:00+17ююз11540 0.0 100813
03:00+17ююз11460 0.0 100718
06:00+19ю01426 0.0 100746
09:00+25в323120 0.0 1007436
12:00+27в43307 0.0 1006663
15:00+26всв32382 0.0 1006488
18:00+21всв225359 0.0 1005131
21:00+17ссз016699 0.0 100623
18 мая, вт
вт1800:00+18ссз47577 0.0 1007115
03:00+17сз23575 0.0 100661
06:00+19ссз245816 0.0 1008145
09:00+22ссв345895 0.0 1009626
12:00+25ссв775577 0.0 10101301
15:00+24с785531 0.1 10101287
18:00+22с346495 0.4 1011269
21:00+19зюз117599 0.6 101231
19 мая, ср
ср1900:00+18з228210 0.1 101218
03:00+17зюз22806 0.1 101215
06:00+20зюз12640 0.0 101490
09:00+25ссв33481 0.0 10141099
12:00+26св43461 0.0 10141264
15:00+25св43473 0.0 10141009
18:00+23всв22540 0.0 1015251
21:00+19юз21670 0.0 101511